TimeEST,TemperatureF,Dew PointF,Humidity,Sea Level PressureIn,VisibilityMPH,Wind Direction,Wind SpeedMPH,Gust SpeedMPH,PrecipitationIn,Events,Conditions,WindDirDegrees,DateUTC
12:15 AM,14.0,3.2,62,30.04,10.0,West,15.0,23.0,N/A,,Mostly Cloudy,280,2013-01-22 05:15:00
12:35 AM,14.0,1.4,57,30.05,10.0,West,21.9,32.2,N/A,,Partly Cloudy,260,2013-01-22 05:35:00
12:55 AM,14.0,1.4,57,30.05,10.0,West,15.0,20.7,N/A,,Partly Cloudy,280,2013-01-22 05:55:00
1:15 AM,14.0,1.4,57,30.05,10.0,WNW,11.5,20.7,N/A,,Scattered Clouds,290,2013-01-22 06:15:00
1:35 AM,12.2,1.4,62,30.06,10.0,West,17.3,24.2,N/A,,Scattered Clouds,270,2013-01-22 06:35:00
1:55 AM,12.2,-0.4,57,30.07,10.0,West,19.6,25.3,N/A,,Clear,260,2013-01-22 06:55:00
2:15 AM,12.2,-0.4,57,30.08,10.0,West,15.0,24.2,N/A,,Clear,270,2013-01-22 07:15:00
2:35 AM,10.4,-0.4,62,30.09,10.0,West,11.5,23.0,N/A,,Clear,270,2013-01-22 07:35:00
2:55 AM,10.4,-0.4,62,30.09,10.0,WNW,11.5,21.9,N/A,,Clear,290,2013-01-22 07:55:00
3:15 AM,10.4,-0.4,62,30.10,10.0,WNW,10.4,23.0,N/A,,Clear,290,2013-01-22 08:15:00
3:35 AM,10.4,-4.0,52,30.10,10.0,West,16.1,26.5,N/A,,Clear,260,2013-01-22 08:35:00
3:55 AM,8.6,-4.0,57,30.10,10.0,West,12.7,21.9,N/A,,Clear,280,2013-01-22 08:55:00
4:15 AM,8.6,-4.0,57,30.10,10.0,West,16.1,21.9,N/A,,Clear,270,2013-01-22 09:15:00
4:35 AM,8.6,-4.0,57,30.11,10.0,West,15.0,20.7,N/A,,Clear,260,2013-01-22 09:35:00
4:55 AM,8.6,-4.0,57,30.12,10.0,West,12.7,21.9,N/A,,Clear,270,2013-01-22 09:55:00
5:15 AM,8.6,-4.0,57,30.13,10.0,West,12.7,24.2,N/A,,Clear,270,2013-01-22 10:15:00
5:35 AM,8.6,-4.0,57,30.13,10.0,West,8.1,-,N/A,,Clear,280,2013-01-22 10:35:00
5:55 AM,8.6,-4.0,57,30.14,10.0,West,8.1,16.1,N/A,,Clear,270,2013-01-22 10:55:00
6:15 AM,8.6,-4.0,57,30.14,10.0,West,10.4,-,N/A,,Clear,280,2013-01-22 11:15:00
6:35 AM,6.8,-4.0,61,30.15,10.0,West,11.5,16.1,N/A,,Clear,280,2013-01-22 11:35:00
6:55 AM,6.8,-4.0,61,30.16,10.0,West,9.2,16.1,N/A,,Clear,270,2013-01-22 11:55:00
7:15 AM,6.8,-4.0,61,30.17,10.0,West,13.8,19.6,N/A,,Clear,270,2013-01-22 12:15:00
7:35 AM,6.8,-4.0,61,30.17,10.0,West,10.4,16.1,N/A,,Clear,280,2013-01-22 12:35:00
7:55 AM,6.8,-4.0,61,30.18,10.0,West,15.0,18.4,N/A,,Clear,260,2013-01-22 12:55:00
8:15 AM,6.8,-4.0,61,30.19,10.0,West,11.5,17.3,N/A,,Clear,280,2013-01-22 13:15:00
8:55 AM,8.6,-4.0,57,30.20,10.0,WSW,8.1,-,N/A,,Clear,250,2013-01-22 13:55:00
9:15 AM,8.6,-4.0,57,30.21,10.0,West,13.8,18.4,N/A,,Clear,270,2013-01-22 14:15:00
9:35 AM,8.6,-2.2,62,30.22,10.0,West,9.2,-,N/A,,Partly Cloudy,280,2013-01-22 14:35:00
9:55 AM,10.4,-4.0,52,30.22,10.0,WNW,8.1,-,N/A,,Clear,290,2013-01-22 14:55:00
10:15 AM,10.4,-2.2,57,30.22,10.0,WSW,10.4,-,N/A,,Partly Cloudy,250,2013-01-22 15:15:00
10:55 AM,10.4,-7.6,44,30.22,10.0,WSW,11.5,19.6,N/A,,Partly Cloudy,250,2013-01-22 15:55:00
11:15 AM,12.2,-5.8,45,30.21,10.0,WSW,12.7,21.9,N/A,,Clear,250,2013-01-22 16:15:00
11:35 AM,14.0,-5.8,41,30.21,10.0,West,5.8,16.1,N/A,,Clear,270,2013-01-22 16:35:00
11:55 AM,14.0,-7.6,38,30.20,10.0,West,12.7,18.4,N/A,,Partly Cloudy,270,2013-01-22 16:55:00
12:15 PM,14.0,-5.8,41,30.19,10.0,WSW,12.7,19.6,N/A,,Clear,250,2013-01-22 17:15:00
12:35 PM,14.0,-7.6,38,30.18,10.0,WNW,13.8,19.6,N/A,,Clear,290,2013-01-22 17:35:00
12:55 PM,14.0,-5.8,41,30.18,10.0,West,15.0,20.7,N/A,,Clear,260,2013-01-22 17:55:00
1:15 PM,14.0,-7.6,38,30.17,10.0,West,11.5,20.7,N/A,,Clear,260,2013-01-22 18:15:00
1:55 PM,14.0,-7.6,38,30.16,10.0,West,12.7,18.4,N/A,,Clear,260,2013-01-22 18:55:00
2:15 PM,17.6,-5.8,35,30.16,10.0,West,11.5,18.4,N/A,,Clear,260,2013-01-22 19:15:00
2:35 PM,15.8,-5.8,38,30.16,10.0,West,10.4,18.4,N/A,,Clear,270,2013-01-22 19:35:00
2:55 PM,15.8,-5.8,38,30.16,10.0,West,13.8,20.7,N/A,,Clear,280,2013-01-22 19:55:00
3:15 PM,15.8,-5.8,38,30.16,10.0,WNW,13.8,20.7,N/A,,Clear,290,2013-01-22 20:15:00
3:35 PM,15.8,-5.8,38,30.16,10.0,West,13.8,20.7,N/A,,Clear,270,2013-01-22 20:35:00
3:55 PM,15.8,-5.8,38,30.17,10.0,WSW,16.1,21.9,N/A,,Clear,240,2013-01-22 20:55:00
4:15 PM,15.8,-5.8,38,30.17,10.0,WSW,16.1,19.6,N/A,,Clear,240,2013-01-22 21:15:00
4:35 PM,15.8,-5.8,38,30.17,10.0,WSW,17.3,21.9,N/A,,Clear,240,2013-01-22 21:35:00
4:55 PM,14.0,-5.8,41,30.19,10.0,West,15.0,-,N/A,,Clear,280,2013-01-22 21:55:00
5:15 PM,14.0,-4.0,45,30.19,10.0,West,11.5,-,N/A,,Clear,280,2013-01-22 22:15:00
5:35 PM,14.0,-5.8,41,30.19,10.0,West,11.5,-,N/A,,Clear,270,2013-01-22 22:35:00
5:55 PM,12.2,-4.0,48,30.20,10.0,West,9.2,-,N/A,,Clear,260,2013-01-22 22:55:00
6:15 PM,12.2,-4.0,48,30.20,10.0,WNW,9.2,-,N/A,,Clear,290,2013-01-22 23:15:00
6:35 PM,12.2,-4.0,48,30.21,10.0,West,8.1,-,N/A,,Clear,270,2013-01-22 23:35:00
6:55 PM,12.2,-4.0,48,30.21,10.0,West,8.1,-,N/A,,Clear,270,2013-01-22 23:55:00
7:15 PM,12.2,-4.0,48,30.21,10.0,West,6.9,-,N/A,,Clear,270,2013-01-23 00:15:00
7:35 PM,12.2,-4.0,48,30.21,10.0,West,8.1,-,N/A,,Clear,270,2013-01-23 00:35:00
7:55 PM,12.2,-4.0,48,30.22,10.0,West,6.9,-,N/A,,Clear,260,2013-01-23 00:55:00
8:15 PM,12.2,-4.0,48,30.22,10.0,West,4.6,-,N/A,,Clear,280,2013-01-23 01:15:00
8:35 PM,12.2,-4.0,48,30.22,10.0,West,4.6,-,N/A,,Clear,270,2013-01-23 01:35:00
8:55 PM,12.2,-2.2,53,30.22,10.0,WSW,6.9,-,N/A,,Clear,250,2013-01-23 01:55:00
9:15 PM,12.2,-2.2,53,30.22,10.0,West,5.8,-,N/A,,Clear,260,2013-01-23 02:15:00
9:35 PM,12.2,-0.4,57,30.22,10.0,WSW,6.9,-,N/A,,Clear,250,2013-01-23 02:35:00
9:55 PM,12.2,-0.4,57,30.22,10.0,West,5.8,-,N/A,,Clear,260,2013-01-23 02:55:00
10:15 PM,12.2,-0.4,57,30.22,10.0,WSW,5.8,-,N/A,,Clear,250,2013-01-23 03:15:00
10:35 PM,12.2,-0.4,57,30.23,10.0,West,5.8,-,N/A,,Clear,260,2013-01-23 03:35:00
10:55 PM,12.2,-0.4,57,30.23,10.0,WSW,6.9,-,N/A,,Clear,250,2013-01-23 03:55:00
11:15 PM,12.2,-0.4,57,30.23,10.0,WSW,4.6,-,N/A,,Clear,240,2013-01-23 04:15:00
11:55 PM,12.2,-0.4,57,30.23,10.0,WSW,5.8,-,N/A,,Clear,240,2013-01-23 04:55:00